QPF
0.09 0.09 0.15 0.15 0.11 0.11 0.07 0.05 0.05 0.05 0.05 0.06 0.08 0.07 0.07 0.07 0.06 0.06 0.07 0.08 0.07 0.07 0.08 0.09 0.09 0.12 0.15 0.19 0.16 0.11 0.10 0.15 0.23 0.24 0.14 0.10 0.10 0.08 0.08 0.08 0.07 0.04 0.07
0.12 0.21 0.23 0.15 0.12 0.12 0.07 0.05 0.05 0.05 0.06 0.07 0.07 0.07 0.08 0.09 0.08 0.08 0.07 0.08 0.07 0.06 0.06 0.08 0.09 0.09 0.10 0.10 0.09 0.10 0.13 0.20 0.27 0.26 0.16 0.16 0.14 0.07 0.05 0.05 0.06 0.05 0.04
0.13 0.20 0.16 0.16 0.17 0.12 0.07 0.06 0.07 0.06 0.04 0.05 0.07 0.07 0.07 0.08 0.07 0.07 0.07 0.07 0.07 0.06 0.06 0.06 0.07 0.08 0.09 0.08 0.07 0.07 0.09 0.11 0.14 0.19 0.18 0.16 0.11 0.07 0.06 0.05 0.05 0.05 0.04
0.10 0.15 0.17 0.19 0.14 0.09 0.09 0.17 0.22 0.16 0.07 0.04 0.06 0.08 0.08 0.08 0.07 0.08 0.08 0.08 0.07 0.07 0.07 0.07 0.07 0.07 0.06 0.06 0.06 0.06 0.08 0.09 0.12 0.13 0.17 0.15 0.10 0.07 0.06 0.05 0.05 0.05 0.04
0.06 0.08 0.10 0.10 0.09 0.08 0.15 0.29 0.26 0.18 0.13 0.06 0.07 0.08 0.08 0.08 0.08 0.08 0.09 0.08 0.07 0.06 0.08 0.08 0.07 0.05 0.04 0.04 0.04 0.05 0.06 0.08 0.09 0.11 0.14 0.13 0.11 0.07 0.04 0.03 0.04 0.04 0.04
0.04 0.04 0.03 0.03 0.04 0.07 0.19 0.26 0.15 0.14 0.14 0.08 0.07 0.08 0.07 0.06 0.07 0.08 0.08 0.08 0.07 0.07 0.06 0.05 0.05 0.05 0.03 0.02 0.02 0.02 0.04 0.06 0.08 0.11 0.13 0.15 0.14 0.07 0.04 0.03 0.03 0.03 0.04
0.02 0.03 0.03 0.03 0.03 0.06 0.14 0.15 0.10 0.11 0.09 0.06 0.07 0.10 0.10 0.09 0.08 0.08 0.09 0.07 0.06 0.07 0.06 0.05 0.04 0.03 0.02 0.02 0.01 0.02 0.04 0.05 0.08 0.08 0.09 0.15 0.19 0.08 0.04 0.03 0.03 0.03 0.04
0.02 0.02 0.03 0.03 0.02 0.03 0.07 0.09 0.08 0.06 0.04 0.03 0.04 0.08 0.10 0.10 0.13 0.10 0.09 0.09 0.07 0.06 0.05 0.04 0.04 0.04 0.02 0.01 0.01 0.01 0.03 0.05 0.05 0.06 0.06 0.11 0.16 0.15 0.08 0.05 0.04 0.05 0.04
0.02 0.02 0.03 0.02 0.01 0.01 0.03 0.03 0.03 0.03 0.02 0.02 0.03 0.05 0.07 0.08 0.09 0.07 0.07 0.06 0.06 0.07 0.07 0.07 0.07 0.07 0.04 0.02 0.02 0.02 0.03 0.04 0.05 0.07 0.07 0.08 0.10 0.15 0.14 0.08 0.06 0.06 0.05
0.03 0.02 0.02 0.02 0.02 0.02 0.03 0.03 0.03 0.03 0.02 0.03 0.03 0.03 0.04 0.05 0.06 0.06 0.05 0.07 0.07 0.11 0.13 0.12 0.12 0.09 0.05 0.04 0.04 0.04 0.04 0.05 0.07 0.07 0.08 0.07 0.09 0.10 0.12 0.10 0.06 0.06 0.06
0.04 0.04 0.03 0.02 0.02 0.02 0.03 0.04 0.05 0.04 0.03 0.03 0.03 0.03 0.05 0.07 0.06 0.06 0.06 0.07 0.06 0.07 0.08 0.09 0.10 0.09 0.08 0.07 0.06 0.06 0.05 0.05 0.06 0.07 0.07 0.06 0.07 0.09 0.09 0.08 0.05 0.05 0.06
0.04 0.05 0.04 0.03 0.02 0.01 0.01 0.03 0.04 0.04 0.04 0.04 0.05 0.07 0.08 0.06 0.06 0.07 0.08 0.08 0.06 0.07 0.07 0.06 0.05 0.05 0.04 0.04 0.04 0.03 0.03 0.04 0.05 0.08 0.08 0.07 0.06 0.07 0.09 0.08 0.06 0.04 0.04
0.02 0.03 0.03 0.03 0.02 0.01 0.02 0.03 0.04 0.05 0.05 0.05 0.07 0.07 0.06 0.04 0.03 0.06 0.08 0.09 0.08 0.08 0.07 0.05 0.04 0.04 0.03 0.03 0.03 0.03 0.03 0.04 0.06 0.10 0.08 0.06 0.05 0.05 0.07 0.09 0.06 0.05 0.04
0.02 0.03 0.04 0.03 0.02 0.03 0.04 0.05 0.05 0.05 0.05 0.05 0.05 0.04 0.03 0.02 0.01 0.02 0.05 0.06 0.07 0.08 0.08 0.07 0.04 0.04 0.04 0.04 0.05 0.06 0.06 0.05 0.05 0.07 0.06 0.05 0.05 0.05 0.04 0.03 0.04 0.05 0.05
0.02 0.03 0.03 0.03 0.02 0.04 0.05 0.05 0.04 0.04 0.03 0.03 0.03 0.03 0.02 0.02 0.01 0.01 0.01 0.02 0.02 0.03 0.03 0.05 0.04 0.03 0.04 0.05 0.05 0.06 0.06 0.05 0.04 0.05 0.03 0.03 0.04 0.03 0.02 0.02 0.02 0.02 0.03
0.02 0.03 0.03 0.02 0.02 0.03 0.04 0.04 0.03 0.02 0.02 0.02 0.02 0.02 0.01 0.02 0.01 0.01 0.00 0.01 0.01 0.01 0.01 0.02 0.02 0.02 0.03 0.02 0.03 0.03 0.05 0.04 0.03 0.03 0.03 0.04 0.05 0.03 0.02 0.02 0.01 0.01 0.02
0.02 0.03 0.03 0.02 0.02 0.02 0.02 0.02 0.02 0.02 0.02 0.02 0.01 0.01 0.01 0.01 0.01 0.01 0.01 0.01 0.01 0.02 0.03 0.03 0.03 0.02 0.01 0.01 0.02 0.03 0.04 0.03 0.03 0.03 0.03 0.05 0.04 0.03 0.03 0.03 0.03 0.02 0.01
0.01 0.02 0.02 0.02 0.01 0.01 0.01 0.01 0.02 0.03 0.03 0.02 0.01 0.01 0.01 0.01 0.01 0.02 0.02 0.02 0.02 0.03 0.03 0.03 0.03 0.02 0.01 0.01 0.02 0.03 0.03 0.03 0.04 0.03 0.02 0.02 0.03 0.03 0.03 0.02 0.02 0.02 0.02
0.02 0.01 0.00 0.01 0.01 0.01 0.02 0.02 0.03 0.04 0.03 0.02 0.01 0.01 0.01 0.02 0.02 0.02 0.01 0.02 0.01 0.01 0.01 0.02 0.03 0.02 0.01 0.01 0.01 0.01 0.01 0.01 0.02 0.02 0.02 0.02 0.02 0.03 0.03 0.03 0.03 0.03 0.02
0.02 0.01 0.01 0.00 0.01 0.01 0.02 0.02 0.02 0.02 0.01 0.01 0.01 0.01 0.01 0.01 0.01 0.01 0.01 0.02 0.01 0.01 0.02 0.03 0.03 0.02 0.01 0.01 0.00 0.00 0.00 0.01 0.01 0.01 0.02 0.02 0.03 0.04 0.03 0.03 0.02 0.02 0.02
0.02 0.02 0.01 0.00 0.00 0.01 0.01 0.01 0.00 0.01 0.01 0.00 0.01 0.01 0.00 0.00 0.00 0.00 0.01 0.02 0.02 0.02 0.03 0.03 0.02 0.01 0.01 0.00 0.01 0.01 0.01 0.01 0.02 0.02 0.02 0.03 0.05 0.05 0.03 0.02 0.02 0.02 0.01
0.01 0.01 0.01 0.00 0.00 0.00 0.01 0.01 0.01 0.01 0.01 0.01 0.01 0.00 0.00 0.00 0.00 0.00 0.00 0.01 0.01 0.02 0.03 0.03 0.01 0.01 0.01 0.01 0.02 0.02 0.02 0.03 0.04 0.04 0.04 0.06 0.06 0.05 0.05 0.02 0.02 0.02 0.02
0.02 0.01 0.01 0.01 0.00 0.00 0.01 0.01 0.01 0.01 0.01 0.01 0.00 0.02 0.01 0.00 0.00 0.00 0.00 0.00 0.01 0.02 0.02 0.02 0.01 0.01 0.01 0.01 0.02 0.03 0.04 0.05 0.04 0.04 0.05 0.06 0.07 0.07 0.06 0.03 0.02 0.03 0.03
0.01 0.01 0.01 0.02 0.01 0.01 0.00 0.00 0.00 0.00 0.00 0.01 0.01 0.02 0.01 0.00 0.00 0.01 0.01 0.01 0.01 0.01 0.02 0.02 0.01 0.01 0.01 0.01 0.02 0.02 0.03 0.05 0.05 0.05 0.04 0.05 0.05 0.07 0.07 0.04 0.03 0.03 0.04
0.01 0.02 0.02 0.03 0.03 0.01 0.01 0.01 0.01 0.01 0.02 0.02 0.02 0.02 0.01 0.00 0.00 0.01 0.01 0.01 0.02 0.02 0.01 0.01 0.02 0.01 0.01 0.01 0.01 0.02 0.02 0.05 0.05 0.05 0.05 0.04 0.04 0.06 0.06 0.04 0.03 0.05 0.06
0.02 0.03 0.04 0.05 0.06 0.05 0.03 0.02 0.02 0.02 0.02 0.02 0.03 0.03 0.03 0.01 0.01 0.01 0.01 0.01 0.01 0.01 0.02 0.02 0.01 0.01 0.01 0.01 0.02 0.02 0.03 0.05 0.05 0.05 0.05 0.05 0.05 0.06 0.07 0.07 0.06 0.06 0.08
MSLP
1014.08 1013.33 1012.55 1011.83 1011.24 1010.79 1010.49 1010.26 1010.04 1009.78 1009.45 1009.03 1008.56 1008.07 1007.62 1007.24 1006.91 1006.64 1006.37 1006.06 1005.69 1005.23 1004.69 1004.10 1003.47 1002.85 1002.26 1001.73 1001.27 1000.91 1000.68 1000.64 1000.82 1001.26 1001.95 1002.85 1003.89 1004.96 1005.96 1006.78 1007.34 1007.62 1007.67
1014.71 1014.00 1013.26 1012.58 1012.02 1011.59 1011.27 1011.02 1010.78 1010.50 1010.15 1009.75 1009.32 1008.89 1008.51 1008.17 1007.89 1007.63 1007.36 1007.05 1006.66 1006.20 1005.68 1005.12 1004.55 1003.98 1003.44 1002.94 1002.49 1002.12 1001.88 1001.81 1001.95 1002.33 1002.96 1003.78 1004.72 1005.68 1006.55 1007.24 1007.68 1007.87 1007.86
1015.22 1014.56 1013.90 1013.30 1012.80 1012.42 1012.13 1011.89 1011.64 1011.36 1011.02 1010.64 1010.24 1009.86 1009.51 1009.21 1008.93 1008.66 1008.35 1008.00 1007.58 1007.12 1006.62 1006.11 1005.61 1005.13 1004.67 1004.25 1003.86 1003.53 1003.29 1003.20 1003.30 1003.62 1004.16 1004.86 1005.67 1006.48 1007.19 1007.74 1008.06 1008.17 1008.12
1015.56 1014.99 1014.43 1013.95 1013.56 1013.26 1013.03 1012.81 1012.58 1012.31 1011.98 1011.63 1011.27 1010.92 1010.60 1010.30 1010.01 1009.70 1009.34 1008.93 1008.47 1007.99 1007.51 1007.06 1006.64 1006.27 1005.93 1005.61 1005.30 1005.03 1004.83 1004.74 1004.79 1005.04 1005.47 1006.04 1006.68 1007.33 1007.88 1008.28 1008.50 1008.56 1008.49
1015.78 1015.30 1014.86 1014.51 1014.24 1014.05 1013.89 1013.72 1013.52 1013.27 1012.96 1012.63 1012.30 1011.98 1011.68 1011.39 1011.08 1010.73 1010.31 1009.85 1009.35 1008.85 1008.39 1007.99 1007.66 1007.39 1007.16 1006.95 1006.74 1006.55 1006.39 1006.30 1006.33 1006.50 1006.82 1007.24 1007.73 1008.20 1008.60 1008.88 1009.02 1009.03 1008.98
1015.89 1015.50 1015.18 1014.97 1014.83 1014.75 1014.67 1014.56 1014.39 1014.15 1013.86 1013.56 1013.25 1012.97 1012.70 1012.41 1012.10 1011.72 1011.27 1010.77 1010.24 1009.73 1009.27 1008.91 1008.64 1008.46 1008.32 1008.22 1008.10 1007.98 1007.87 1007.80 1007.81 1007.91 1008.13 1008.42 1008.76 1009.08 1009.35 1009.52 1009.60 1009.60 1009.56
1015.95 1015.64 1015.44 1015.36 1015.35 1015.37 1015.36 1015.29 1015.14 1014.91 1014.63 1014.34 1014.06 1013.81 1013.57 1013.32 1013.02 1012.65 1012.20 1011.68 1011.14 1010.62 1010.17 1009.83 1009.59 1009.47 1009.40 1009.37 1009.33 1009.27 1009.21 1009.16 1009.16 1009.22 1009.35 1009.54 1009.75 1009.95 1010.10 1010.19 1010.22 1010.21 1010.19
1016.04 1015.80 1015.70 1015.72 1015.81 1015.91 1015.95 1015.90 1015.75 1015.51 1015.23 1014.94 1014.69 1014.47 1014.28 1014.08 1013.83 1013.50 1013.07 1012.57 1012.03 1011.52 1011.07 1010.73 1010.51 1010.40 1010.37 1010.38 1010.39 1010.38 1010.36 1010.33 1010.33 1010.36 1010.44 1010.55 1010.67 1010.77 1010.84 1010.87 1010.86 1010.84 1010.82
1016.22 1016.03 1016.01 1016.12 1016.29 1016.43 1016.50 1016.44 1016.27 1016.00 1015.69 1015.40 1015.16 1014.98 1014.83 1014.70 1014.51 1014.24 1013.87 1013.41 1012.91 1012.40 1011.96 1011.61 1011.38 1011.27 1011.23 1011.25 1011.28 1011.30 1011.31 1011.31 1011.31 1011.34 1011.39 1011.45 1011.51 1011.54 1011.55 1011.53 1011.48 1011.43 1011.40
1016.54 1016.40 1016.45 1016.62 1016.82 1016.99 1017.04 1016.96 1016.74 1016.43 1016.09 1015.77 1015.53 1015.37 1015.27 1015.19 1015.08 1014.89 1014.59 1014.19 1013.73 1013.25 1012.82 1012.46 1012.21 1012.06 1012.01 1012.01 1012.03 1012.07 1012.10 1012.12 1012.14 1012.17 1012.21 1012.24 1012.26 1012.25 1012.22 1012.15 1012.06 1011.98 1011.91
1017.01 1016.93 1017.03 1017.23 1017.45 1017.61 1017.63 1017.50 1017.23 1016.86 1016.47 1016.13 1015.87 1015.72 1015.65 1015.62 1015.56 1015.44 1015.21 1014.89 1014.48 1014.04 1013.62 1013.26 1012.99 1012.82 1012.73 1012.70 1012.71 1012.74 1012.78 1012.82 1012.85 1012.89 1012.93 1012.95 1012.95 1012.91 1012.84 1012.73 1012.60 1012.47 1012.35
1017.64 1017.61 1017.74 1017.95 1018.16 1018.29 1018.27 1018.08 1017.76 1017.34 1016.91 1016.53 1016.25 1016.09 1016.03 1016.02 1016.00 1015.93 1015.77 1015.50 1015.16 1014.77 1014.38 1014.03 1013.75 1013.55 1013.44 1013.38 1013.37 1013.38 1013.41 1013.45 1013.49 1013.54 1013.57 1013.59 1013.58 1013.52 1013.42 1013.28 1013.11 1012.93 1012.75
1018.38 1018.39 1018.53 1018.73 1018.91 1018.99 1018.92 1018.69 1018.32 1017.87 1017.41 1017.01 1016.71 1016.52 1016.45 1016.43 1016.42 1016.38 1016.26 1016.05 1015.76 1015.42 1015.08 1014.76 1014.49 1014.29 1014.16 1014.08 1014.04 1014.03 1014.04 1014.06 1014.10 1014.13 1014.16 1014.17 1014.15 1014.08 1013.97 1013.81 1013.61 1013.39 1013.16
1019.17 1019.21 1019.34 1019.51 1019.63 1019.66 1019.54 1019.27 1018.89 1018.42 1017.96 1017.54 1017.23 1017.02 1016.91 1016.87 1016.85 1016.81 1016.71 1016.53 1016.30 1016.02 1015.73 1015.46 1015.22 1015.03 1014.89 1014.80 1014.73 1014.70 1014.67 1014.67 1014.67 1014.68 1014.69 1014.69 1014.66 1014.59 1014.48 1014.31 1014.10 1013.86 1013.58
1019.95 1019.99 1020.09 1020.20 1020.26 1020.22 1020.07 1019.78 1019.40 1018.96 1018.52 1018.12 1017.79 1017.57 1017.42 1017.34 1017.28 1017.22 1017.12 1016.97 1016.78 1016.55 1016.33 1016.11 1015.91 1015.75 1015.62 1015.52 1015.43 1015.36 1015.29 1015.24 1015.19 1015.16 1015.14 1015.12 1015.08 1015.02 1014.91 1014.77 1014.57 1014.32 1014.04
1020.66 1020.67 1020.71 1020.75 1020.73 1020.64 1020.46 1020.18 1019.83 1019.44 1019.04 1018.67 1018.36 1018.12 1017.94 1017.81 1017.71 1017.61 1017.49 1017.35 1017.19 1017.02 1016.85 1016.69 1016.55 1016.42 1016.31 1016.19 1016.08 1015.97 1015.85 1015.73 1015.63 1015.54 1015.48 1015.42 1015.38 1015.32 1015.24 1015.13 1014.96 1014.74 1014.48
1021.26 1021.23 1021.20 1021.15 1021.06 1020.93 1020.73 1020.47 1020.17 1019.84 1019.51 1019.19 1018.90 1018.65 1018.44 1018.26 1018.10 1017.96 1017.82 1017.68 1017.54 1017.41 1017.29 1017.18 1017.08 1016.99 1016.88 1016.77 1016.63 1016.47 1016.30 1016.12 1015.95 1015.80 1015.68 1015.59 1015.53 1015.48 1015.43 1015.36 1015.24 1015.07 1014.85
1021.76 1021.68 1021.57 1021.44 1021.29 1021.11 1020.91 1020.69 1020.44 1020.18 1019.92 1019.65 1019.38 1019.13 1018.89 1018.67 1018.47 1018.28 1018.11 1017.96 1017.83 1017.73 1017.64 1017.56 1017.50 1017.42 1017.32 1017.19 1017.03 1016.83 1016.61 1016.36 1016.13 1015.91 1015.74 1015.61 1015.52 1015.48 1015.45 1015.42 1015.36 1015.25 1015.09
1022.18 1022.04 1021.87 1021.67 1021.47 1021.27 1021.08 1020.89 1020.70 1020.50 1020.30 1020.07 1019.82 1019.56 1019.30 1019.03 1018.79 1018.56 1018.36 1018.20 1018.07 1017.97 1017.90 1017.84 1017.78 1017.71 1017.61 1017.47 1017.29 1017.06 1016.79 1016.50 1016.20 1015.92 1015.69 1015.51 1015.39 1015.33 1015.31 1015.31 1015.30 1015.26 1015.16
1022.56 1022.38 1022.16 1021.92 1021.69 1021.48 1021.30 1021.15 1021.00 1020.85 1020.68 1020.48 1020.24 1019.97 1019.67 1019.38 1019.09 1018.83 1018.60 1018.42 1018.28 1018.18 1018.10 1018.03 1017.97 1017.89 1017.78 1017.63 1017.44 1017.19 1016.89 1016.57 1016.22 1015.89 1015.60 1015.36 1015.19 1015.10 1015.06 1015.07 1015.09 1015.10 1015.07
1022.92 1022.72 1022.48 1022.23 1022.00 1021.80 1021.64 1021.51 1021.40 1021.28 1021.12 1020.92 1020.67 1020.38 1020.05 1019.72 1019.41 1019.12 1018.87 1018.67 1018.51 1018.39 1018.29 1018.20 1018.12 1018.03 1017.91 1017.75 1017.55 1017.30 1017.00 1016.66 1016.29 1015.91 1015.56 1015.26 1015.02 1014.86 1014.78 1014.77 1014.79 1014.83 1014.84
1023.29 1023.10 1022.86 1022.63 1022.41 1022.24 1022.11 1022.01 1021.91 1021.80 1021.64 1021.42 1021.15 1020.82 1020.47 1020.12 1019.78 1019.48 1019.22 1019.00 1018.82 1018.67 1018.54 1018.42 1018.30 1018.19 1018.06 1017.90 1017.72 1017.48 1017.20 1016.86 1016.48 1016.07 1015.66 1015.29 1014.97 1014.73 1014.58 1014.51 1014.50 1014.54 1014.58
1023.68 1023.50 1023.30 1023.10 1022.92 1022.78 1022.68 1022.60 1022.52 1022.40 1022.22 1021.98 1021.68 1021.33 1020.96 1020.59 1020.24 1019.94 1019.67 1019.44 1019.24 1019.06 1018.90 1018.74 1018.60 1018.46 1018.32 1018.18 1018.02 1017.82 1017.56 1017.25 1016.87 1016.44 1015.98 1015.53 1015.12 1014.78 1014.53 1014.38 1014.32 1014.32 1014.37
1024.06 1023.91 1023.75 1023.59 1023.46 1023.37 1023.31 1023.25 1023.17 1023.05 1022.86 1022.59 1022.27 1021.90 1021.52 1021.16 1020.82 1020.52 1020.26 1020.03 1019.81 1019.61 1019.41 1019.22 1019.04 1018.88 1018.75 1018.62 1018.50 1018.34 1018.14 1017.86 1017.50 1017.05 1016.55 1016.03 1015.53 1015.07 1014.71 1014.46 1014.32 1014.27 1014.30
1024.42 1024.31 1024.18 1024.07 1023.99 1023.95 1023.92 1023.89 1023.82 1023.70 1023.50 1023.23 1022.90 1022.54 1022.17 1021.82 1021.50 1021.23 1020.98 1020.75 1020.53 1020.30 1020.07 1019.85 1019.65 1019.48 1019.35 1019.25 1019.16 1019.06 1018.90 1018.66 1018.33 1017.88 1017.35 1016.77 1016.18 1015.62 1015.15 1014.79 1014.55 1014.43 1014.41
1024.75 1024.66 1024.57 1024.50 1024.47 1024.46 1024.48 1024.47 1024.43 1024.31 1024.12 1023.86 1023.55 1023.21 1022.87 1022.56 1022.28 1022.03 1021.81 1021.59 1021.36 1021.12 1020.86 1020.62 1020.39 1020.22 1020.09 1020.01 1019.96 1019.91 1019.80 1019.61 1019.30 1018.87 1018.32 1017.69 1017.02 1016.38 1015.80 1015.34 1015.00 1014.80 1014.70
Thickness
5767 5770 5770 5772 5772 5773 5774 5775 5776 5777 5778 5778 5779 5779 5779 5779 5779 5779 5779 5779 5779 5778 5778 5779 5779 5779 5779 5777 5777 5776 5775 5775 5775 5774 5773 5773 5773 5772 5772 5772 5772 5772 5772
5769 5769 5769 5769 5770 5771 5772 5773 5774 5775 5775 5776 5776 5776 5777 5776 5776 5777 5777 5776 5776 5776 5775 5775 5775 5775 5775 5774 5774 5773 5772 5772 5771 5771 5770 5770 5770 5770 5770 5770 5770 5769 5769
5769 5769 5769 5767 5768 5768 5769 5771 5771 5772 5772 5773 5773 5774 5774 5774 5773 5773 5773 5773 5773 5773 5772 5772 5772 5771 5771 5771 5771 5771 5770 5769 5769 5768 5768 5767 5767 5767 5767 5767 5767 5767 5767
5767 5768 5767 5765 5765 5766 5766 5767 5768 5769 5769 5770 5770 5770 5770 5770 5770 5770 5770 5770 5769 5769 5769 5769 5768 5768 5768 5767 5767 5767 5767 5766 5766 5766 5765 5765 5765 5764 5764 5764 5764 5765 5765
5765 5764 5762 5762 5763 5763 5764 5764 5765 5766 5766 5766 5767 5767 5766 5766 5766 5766 5766 5765 5765 5765 5765 5765 5764 5764 5764 5764 5764 5764 5763 5763 5763 5762 5762 5761 5761 5761 5761 5761 5761 5762 5762
5763 5762 5760 5760 5760 5760 5761 5763 5763 5762 5762 5763 5763 5763 5763 5763 5762 5762 5762 5761 5761 5761 5761 5761 5761 5760 5760 5760 5760 5760 5760 5760 5759 5759 5758 5757 5757 5757 5758 5758 5758 5758 5758
5762 5760 5758 5758 5757 5758 5758 5759 5760 5758 5758 5759 5759 5759 5758 5758 5758 5758 5758 5757 5757 5757 5757 5757 5757 5756 5756 5756 5756 5756 5756 5756 5756 5756 5755 5754 5754 5755 5756 5755 5754 5754 5754
5761 5759 5756 5755 5755 5755 5755 5755 5755 5754 5754 5755 5755 5755 5754 5754 5754 5753 5753 5753 5753 5753 5753 5753 5753 5752 5753 5753 5753 5753 5753 5753 5752 5752 5751 5750 5751 5752 5753 5751 5750 5750 5750
5760 5758 5755 5754 5752 5752 5752 5752 5751 5751 5751 5751 5751 5751 5750 5750 5749 5749 5748 5748 5748 5749 5749 5749 5748 5748 5749 5749 5749 5749 5749 5748 5748 5747 5747 5746 5746 5747 5746 5745 5745 5746 5746
5757 5756 5755 5753 5751 5750 5749 5748 5748 5748 5748 5747 5747 5747 5747 5746 5745 5745 5744 5744 5744 5744 5744 5744 5744 5744 5745 5745 5745 5745 5745 5744 5744 5742 5742 5742 5742 5742 5741 5741 5741 5741 5741
5752 5753 5753 5752 5750 5749 5748 5746 5745 5745 5745 5745 5744 5744 5743 5742 5742 5741 5740 5740 5739 5740 5740 5740 5740 5741 5741 5741 5741 5742 5741 5740 5739 5738 5737 5737 5737 5737 5737 5736 5736 5737 5737
5745 5748 5749 5749 5748 5747 5746 5744 5743 5743 5742 5742 5742 5741 5740 5739 5738 5737 5736 5736 5736 5736 5736 5736 5736 5737 5737 5737 5737 5737 5736 5736 5735 5733 5732 5732 5732 5732 5732 5732 5732 5732 5732
5744 5744 5746 5746 5745 5744 5743 5741 5741 5740 5739 5739 5739 5738 5737 5736 5735 5734 5732 5732 5732 5732 5733 5733 5733 5733 5733 5733 5733 5732 5732 5731 5730 5728 5727 5727 5728 5728 5727 5727 5727 5727 5728
5741 5741 5742 5742 5742 5741 5740 5738 5737 5737 5736 5735 5735 5734 5733 5732 5731 5731 5730 5729 5729 5729 5729 5729 5729 5729 5729 5729 5728 5728 5727 5725 5724 5723 5722 5723 5723 5723 5723 5723 5723 5723 5723
5738 5738 5739 5739 5739 5737 5736 5735 5733 5732 5732 5731 5731 5730 5729 5728 5727 5727 5726 5726 5725 5725 5725 5724 5724 5724 5723 5723 5723 5722 5721 5720 5719 5718 5718 5718 5718 5718 5718 5718 5718 5718 5718
5735 5735 5735 5736 5735 5734 5732 5731 5730 5728 5727 5727 5726 5726 5725 5724 5723 5722 5721 5721 5720 5720 5720 5719 5719 5718 5717 5717 5717 5717 5716 5716 5715 5714 5713 5713 5713 5712 5713 5713 5713 5713 5713
5734 5733 5732 5732 5731 5730 5728 5727 5726 5725 5723 5722 5722 5722 5721 5720 5719 5718 5717 5716 5716 5716 5715 5714 5713 5713 5712 5711 5710 5711 5711 5711 5710 5710 5709 5708 5708 5707 5708 5708 5708 5708 5708
5733 5731 5730 5730 5727 5726 5724 5723 5722 5720 5719 5718 5717 5717 5717 5716 5715 5714 5712 5711 5711 5711 5710 5708 5707 5706 5705 5704 5704 5705 5705 5705 5705 5705 5705 5704 5704 5703 5702 5702 5703 5703 5703
5731 5728 5726 5725 5723 5721 5720 5719 5718 5716 5714 5713 5713 5712 5712 5711 5710 5709 5708 5707 5706 5705 5704 5703 5701 5700 5698 5697 5697 5698 5699 5699 5700 5700 5700 5700 5699 5698 5698 5697 5697 5697 5697
5730 5727 5724 5722 5720 5718 5717 5715 5713 5711 5710 5709 5708 5708 5707 5706 5705 5704 5703 5702 5701 5699 5697 5696 5694 5693 5692 5691 5692 5692 5693 5694 5695 5694 5694 5695 5695 5694 5694 5693 5692 5691 5691
5726 5723 5720 5718 5716 5714 5711 5709 5706 5704 5704 5704 5704 5703 5703 5702 5701 5700 5698 5697 5696 5693 5691 5690 5688 5686 5685 5686 5684 5682 5685 5688 5688 5688 5688 5689 5689 5689 5689 5689 5687 5687 5686
5722 5719 5718 5715 5713 5711 5708 5706 5704 5702 5701 5700 5699 5699 5698 5697 5696 5695 5693 5692 5690 5688 5686 5684 5682 5679 5678 5680 5676 5673 5670 5673 5678 5682 5682 5682 5682 5683 5683 5683 5682 5681 5681
5718 5716 5715 5712 5710 5707 5705 5703 5700 5698 5696 5694 5693 5693 5693 5693 5692 5690 5689 5687 5685 5683 5680 5678 5677 5674 5671 5673 5673 5669 5663 5660 5664 5670 5673 5674 5675 5675 5676 5676 5676 5676 5675
5716 5716 5713 5710 5707 5704 5702 5698 5694 5690 5687 5687 5687 5687 5688 5688 5687 5685 5684 5682 5680 5678 5676 5674 5673 5671 5668 5665 5667 5667 5665 5663 5658 5657 5661 5665 5667 5667 5669 5670 5670 5669 5669
5714 5712 5710 5707 5704 5701 5699 5695 5691 5688 5686 5685 5684 5683 5682 5682 5682 5680 5679 5677 5675 5674 5672 5670 5668 5666 5664 5662 5660 5660 5659 5658 5658 5652 5649 5653 5656 5659 5661 5663 5663 5663 5662
5710 5708 5706 5703 5699 5697 5694 5692 5688 5684 5682 5680 5678 5677 5676 5676 5675 5675 5674 5672 5670 5669 5667 5665 5663 5661 5660 5658 5656 5655 5652 5650 5648 5647 5644 5644 5646 5650 5653 5655 5656 5656 5655